[[{"header":{"parameterUnit":"m.s-1","parameterCategory":1,"la1":30.2991,"la2":30.254,"lo1":-89.0895,"lo2":-89.0444,"dy":0.0017,"dx":0.0017,"nx":28,"ny":28,"refTime":"2025-03-10T21:00:00:Z","depth":0,"parameterNumber":2,"parameterNumberName":"U-component_of_WINDS"},"data":[0,0,0,0,0,0,0,0,0,0,0,0,0,0,0,0,0,0,0,0,0,0,0,0,0,0,0,0,0,0,0,0,0,0,0,0,0,0,0,0,0,0,0,0,0,0,0,0,0,0,0,0,0,0,0,0,0,0,5.8826,5.8827,0,5.8927,5.8928,5.893,5.8874,5.8871,5.8868,5.8866,5.8969,5.8974,5.8979,0,0,0,0,0,0,0,0,0,0,0,0,0,5.8585,5.859,5.8826,5.8827,5.8829,5.8927,5.8929,5.893,5.8874,5.8871,5.8868,5.8864,5.8967,5.8974,5.898,0,0,0,0,0,0,0,0,0,0,0,0,0,5.8689,5.8592,5.8826,5.8813,5.8812,5.8927,5.8929,5.893,5.8875,5.8871,5.8867,5.8863,5.8965,5.8973,5.8981,5.9114,0,0,5.9005,5.9009,0,0,0,0,0,0,0,0,5.8683,5.8698,5.8813,5.8814,5.8814,5.8884,5.8882,5.8992,5.8876,5.8851,5.8866,5.8861,5.8944,5.8953,5.8982,5.9119,5.9123,5.9006,5.9011,5.9014,5.9017,0,0,0,0,0,0,0,5.8676,5.8693,5.8866,5.8815,5.8815,5.8802,5.8812,5.8902,5.892,5.8853,5.8849,5.8862,5.8943,5.8974,5.8984,5.9125,5.9006,5.9013,5.9018,5.9021,5.9378,5.9383,0,0,0,0,0,0,5.8669,5.8687,5.8863,5.8869,5.8737,5.881,5.8821,5.8865,5.8919,5.8923,5.8866,5.8859,5.8962,5.8974,5.8987,5.9148,5.9014,5.9022,5.9026,5.9374,5.9379,5.9384,0,0,0,0,0,0,5.8664,5.8686,5.8859,5.8777,5.8798,5.8818,5.8869,5.887,5.89,5.8928,5.8931,5.8894,5.896,5.8976,5.9083,5.9151,5.9025,5.9033,5.9368,5.9375,5.9382,5.947,0,0,0,0,0,0,5.8658,5.8684,5.8734,5.8779,5.8803,5.8953,5.8873,5.8875,5.8914,5.8907,5.8955,5.8959,5.8958,5.9072,5.9091,5.9159,5.9039,5.9362,5.9371,5.938,5.9461,5.9479,5.9494,0,0,0,0,0,5.8649,5.8754,5.8737,5.8759,5.8866,5.8957,5.8971,5.8967,5.892,5.8971,5.8989,5.8958,5.914,5.9083,5.9105,5.9176,5.9358,5.9369,5.9379,5.9453,5.9475,5.9494,0,0,0,0,0,0,5.8717,5.876,5.8741,5.8864,5.8907,5.8947,5.9012,5.899,5.9047,5.9038,5.9031,5.9042,5.9155,5.9176,5.9112,5.9309,5.9242,5.9257,5.9291,5.9312,5.9328,5.9321,5.9046,0,0,0,0,0,5.8746,5.8816,5.885,5.8955,5.8978,5.8991,5.9031,5.9024,5.9069,5.9087,5.9113,5.9157,5.9225,5.9269,5.9333,5.9464,5.9474,5.9524,5.954,5.9554,5.9568,5.9641,5.9663,5.9419,5.9419,5.9419,0,0,5.8807,5.8839,5.8884,5.8969,5.9002,5.9076,5.9007,5.9087,5.9142,5.9099,5.9203,5.9224,5.9273,5.9393,5.9448,5.9415,5.9638,5.9567,5.9578,5.9584,5.9654,5.9677,5.9697,5.9426,5.9425,5.9424,0,0,5.8955,5.8986,5.9078,5.9113,5.9164,5.9173,5.9195,5.9239,5.9252,5.9356,5.9326,5.9391,5.9507,5.9544,5.9578,5.9744,5.9718,5.9765,5.9852,5.9923,5.9943,5.996,6.002,6.0042,5.9778,5.9778,5.9778,0,5.9025,5.9134,5.9128,5.9212,5.9251,5.9216,5.931,5.9344,5.9413,5.9442,5.9404,5.955,5.9581,5.9711,5.9751,5.9779,5.9806,5.9759,5.994,5.9957,5.9973,6.0031,6.0054,5.9784,5.9783,5.9783,5.9782,0,5.9218,5.9294,5.9362,5.9431,5.9478,5.9566,5.9574,5.9623,5.9613,5.9626,5.9733,5.9769,5.984,5.987,5.9861,6.0,5.9978,5.9941,5.9873,6.0002,6.0056,6.0078,5.9792,5.979,5.9788,5.9787,0,0,5.9411,5.9477,5.9502,5.9534,5.9589,5.9648,5.9735,5.9805,5.9848,5.9897,5.9971,6.0071,6.0038,6.0076,6.0071,6.0133,6.0265,6.0088,6.0089,6.0121,6.0422,6.0451,6.0476,6.0247,6.0252,6.0255,6.0418,0,5.9564,5.9717,5.9715,5.9857,5.9929,5.9898,5.9974,6.0016,6.0031,6.0095,6.0111,6.0183,6.0132,6.0156,6.0216,6.0236,6.0325,6.0224,6.0317,6.032,6.0307,6.0504,6.0534,6.0687,6.0439,6.0443,6.0446,0,5.9764,5.9821,5.997,6.0017,6.0047,6.0115,6.0181,6.0241,6.0289,6.0296,6.0341,6.0326,6.0416,6.0346,6.047,6.0401,6.0439,6.0455,6.0461,6.047,6.0391,6.052,6.0735,6.0759,6.0479,6.0476,6.0474,0,5.9892,6.0006,6.0111,6.0138,6.0195,6.0244,6.027,6.0314,6.0357,6.0414,6.0442,6.0509,6.0546,6.0599,6.0603,6.0551,6.0729,6.0659,6.0738,6.0738,6.0777,6.0775,6.1003,6.08,6.08,6.08,6.0799,0,6.0064,6.0157,6.0169,6.0234,6.0337,6.0335,6.0438,6.0459,6.0499,6.0568,6.0544,6.0609,6.0611,6.0678,6.0682,6.0785,6.0802,6.081,6.081,6.0813,6.0812,6.0838,6.0828,6.0806,6.0804,6.0803,6.0802,0,6.0225,6.0236,6.0349,6.0394,6.0407,6.0482,6.052,6.0582,6.0595,6.0683,6.0703,6.0724,6.0802,6.0812,6.0902,6.0905,6.103,6.1018,6.1014,6.1013,6.1092,6.1085,6.1345,6.138,6.1154,6.1156,6.1158,0,6.0334,6.0405,6.0458,6.0503,6.0532,6.0604,6.0648,6.0649,6.0696,6.0757,6.0812,6.0888,6.0948,6.1074,6.1098,6.1167,6.1158,6.1244,6.1168,6.1169,6.1161,6.1157,6.1165,6.1259,6.1262,6.1264,6.1265,0,6.0529,6.0531,6.0596,6.0664,6.0718,6.0771,6.0821,6.0859,6.0866,6.0921,6.1,6.1047,6.114,6.1216,6.1285,6.1312,6.1291,6.1289,6.1312,6.1316,6.1311,6.1316,6.1055,6.1283,6.1282,6.128,6.1279,6.1279,6.0668,6.0731,6.0778,6.0852,6.089,6.0938,6.0999,6.102,6.1087,6.1163,6.1159,6.1247,6.1295,6.1386,6.1418,6.1488,6.1459,6.1491,6.1499,6.1508,6.1516,6.1299,6.15,6.15,6.1499,6.1499,6.1498,0,6.0863,6.0892,6.096,6.1031,6.109,6.1065,6.1119,6.117,6.1248,6.1294,6.1355,6.1447,6.1521,6.1552,6.1624,6.1674,6.1667,6.1694,6.169,6.1697,6.1537,6.1511,6.1699,6.1699,6.1699,6.1699,6.1699,6.1698,6.0971,6.1076,6.1085,6.1209,6.1237,6.1324,6.1358,6.1402,6.144,6.1544,6.1606,6.1625,6.1666,6.1741,6.1809,6.1816,6.1844,6.1876,6.1879,6.1728,6.1708,6.1689,6.1665,6.1882,6.1882,6.2033,6.2035,6.2036]},{"header":{"parameterUnit":"m.s-1","parameterCategory":1,"la1":30.2991,"la2":30.254,"lo1":-89.0895,"lo2":-89.0444,"dy":0.0017,"dx":0.0017,"nx":28,"ny":28,"refTime":"2025-03-10T21:00:00:Z","depth":0,"parameterNumber":3,"parameterNumberName":"V-component_of_WINDS"},"data":[0,0,0,0,0,0,0,0,0,0,0,0,0,0,0,0,0,0,0,0,0,0,0,0,0,0,0,0,0,0,0,0,0,0,0,0,0,0,0,0,0,0,0,0,0,0,0,0,0,0,0,0,0,0,0,0,0,0,-4.7602,-4.7604,0,-4.772,-4.7721,-4.7722,-4.7721,-4.772,-4.7718,-4.7717,-4.7835,-4.7839,-4.7844,0,0,0,0,0,0,0,0,0,0,0,0,0,-4.7377,-4.7381,-4.7602,-4.7604,-4.7605,-4.7719,-4.7721,-4.7723,-4.7722,-4.772,-4.7718,-4.7716,-4.7833,-4.7839,-4.7844,0,0,0,0,0,0,0,0,0,0,0,0,0,-4.7483,-4.7383,-4.7602,-4.7619,-4.7621,-4.7719,-4.7721,-4.7723,-4.7722,-4.772,-4.7717,-4.7715,-4.7831,-4.7838,-4.7845,-4.7933,0,0,-4.7866,-4.7869,0,0,0,0,0,0,0,0,-4.7477,-4.7491,-4.7615,-4.7618,-4.7621,-4.7704,-4.7685,-4.7793,-4.7723,-4.7684,-4.7717,-4.7714,-4.7793,-4.7803,-4.783,-4.7939,-4.7944,-4.7866,-4.787,-4.7873,-4.7875,0,0,0,0,0,0,0,-4.7469,-4.7486,-4.7649,-4.7616,-4.762,-4.762,-4.7632,-4.7705,-4.775,-4.7687,-4.7687,-4.7701,-4.7794,-4.7823,-4.7832,-4.7945,-4.7866,-4.7872,-4.7876,-4.7879,-4.8135,-4.8138,0,0,0,0,0,0,-4.7459,-4.748,-4.7645,-4.7652,-4.7542,-4.7626,-4.764,-4.7679,-4.7749,-4.7757,-4.7703,-4.7701,-4.7812,-4.7824,-4.7836,-4.7946,-4.7873,-4.788,-4.7884,-4.8132,-4.8136,-4.8139,0,0,0,0,0,0,-4.7454,-4.7474,-4.764,-4.7566,-4.7587,-4.7632,-4.7677,-4.7683,-4.7712,-4.7761,-4.7769,-4.7725,-4.7811,-4.7827,-4.791,-4.795,-4.7883,-4.7889,-4.8129,-4.8133,-4.8137,-4.8164,0,0,0,0,0,0,-4.7448,-4.7472,-4.7506,-4.7567,-4.7591,-4.7712,-4.7679,-4.7687,-4.7724,-4.7722,-4.7783,-4.7791,-4.781,-4.79,-4.7917,-4.7958,-4.7894,-4.8126,-4.8131,-4.8136,-4.816,-4.8169,-4.8176,0,0,0,0,0,-4.744,-4.7508,-4.7507,-4.7527,-4.7635,-4.7714,-4.7728,-4.7749,-4.7727,-4.7762,-4.7794,-4.7789,-4.7943,-4.7908,-4.7927,-4.7971,-4.8123,-4.813,-4.8135,-4.8156,-4.8167,-4.8176,0,0,0,0,0,0,-4.7449,-4.7516,-4.7516,-4.7606,-4.7655,-4.7714,-4.7758,-4.7759,-4.7814,-4.781,-4.7834,-4.7847,-4.7931,-4.7959,-4.7919,-4.8062,-4.803,-4.8041,-4.804,-4.805,-4.8058,-4.8049,-4.79,0,0,0,0,0,-4.7462,-4.7521,-4.7576,-4.765,-4.7674,-4.7712,-4.7747,-4.776,-4.781,-4.783,-4.7868,-4.7917,-4.7977,-4.8015,-4.8072,-4.8165,-4.8178,-4.8204,-4.8213,-4.8219,-4.8227,-4.828,-4.8293,-4.8158,-4.8158,-4.8158,0,0,-4.7488,-4.7532,-4.7567,-4.7653,-4.7692,-4.7753,-4.7729,-4.7794,-4.7839,-4.784,-4.7921,-4.7951,-4.8007,-4.8096,-4.8136,-4.8122,-4.8268,-4.8227,-4.8232,-4.8237,-4.8288,-4.83,-4.8311,-4.8163,-4.8162,-4.8161,0,0,-4.7567,-4.7606,-4.7673,-4.7713,-4.7773,-4.7798,-4.7814,-4.7874,-4.7894,-4.7976,-4.7979,-4.8033,-4.8134,-4.8175,-4.8209,-4.8306,-4.8305,-4.8324,-4.8366,-4.8417,-4.8428,-4.8438,-4.8473,-4.8486,-4.8333,-4.8333,-4.8333,0,-4.7592,-4.7684,-4.7707,-4.7773,-4.7811,-4.7817,-4.7885,-4.7922,-4.7997,-4.8023,-4.8007,-4.8136,-4.8174,-4.8273,-4.8297,-4.8324,-4.8343,-4.8317,-4.8425,-4.8435,-4.8444,-4.8478,-4.8491,-4.8335,-4.8334,-4.8334,-4.8334,0,-4.7713,-4.7777,-4.7824,-4.7898,-4.7941,-4.8008,-4.8041,-4.8082,-4.8092,-4.8119,-4.8203,-4.8249,-4.8317,-4.8341,-4.835,-4.8442,-4.8432,-4.842,-4.8389,-4.8458,-4.8491,-4.8504,-4.8338,-4.8337,-4.8336,-4.8336,0,0,-4.78,-4.7887,-4.7904,-4.7939,-4.8006,-4.8056,-4.8123,-4.8191,-4.8226,-4.8278,-4.8336,-4.8423,-4.8413,-4.8451,-4.8466,-4.851,-4.8586,-4.8493,-4.8495,-4.8509,-4.8692,-4.8701,-4.8715,-4.8586,-4.8589,-4.8591,-4.8687,0,-4.7887,-4.8007,-4.8031,-4.8136,-4.8196,-4.8203,-4.8262,-4.831,-4.8337,-4.8392,-4.8422,-4.8484,-4.8466,-4.849,-4.8534,-4.8568,-4.8623,-4.8561,-4.864,-4.8642,-4.8626,-4.8732,-4.8741,-4.883,-4.87,-4.8702,-4.8704,0,-4.8004,-4.8061,-4.8172,-4.8233,-4.8259,-4.8312,-4.8377,-4.8429,-4.8484,-4.8501,-4.8545,-4.8555,-4.8626,-4.8593,-4.8691,-4.8648,-4.8682,-4.8704,-4.8708,-4.8716,-4.8677,-4.8744,-4.8859,-4.8872,-4.8724,-4.8722,-4.8721,0,-4.8057,-4.8161,-4.8242,-4.8271,-4.8344,-4.8381,-4.8413,-4.8466,-4.8506,-4.8563,-4.8589,-4.8652,-4.8687,-4.8737,-4.8764,-4.8736,-4.8861,-4.8829,-4.8877,-4.8877,-4.8902,-4.89,-4.9025,-4.8924,-4.8924,-4.8924,-4.8923,0,-4.8152,-4.822,-4.8267,-4.8316,-4.8393,-4.842,-4.8495,-4.8527,-4.8574,-4.863,-4.864,-4.8692,-4.8725,-4.8782,-4.8804,-4.8883,-4.8898,-4.8914,-4.8919,-4.8914,-4.8912,-4.8936,-4.893,-4.8927,-4.8926,-4.8926,-4.8925,0,-4.8224,-4.8258,-4.8346,-4.8409,-4.8427,-4.8481,-4.8535,-4.8583,-4.8612,-4.8683,-4.8701,-4.8746,-4.8814,-4.8846,-4.8929,-4.8944,-4.9034,-4.9035,-4.9016,-4.9018,-4.9064,-4.906,-4.9209,-4.9231,-4.9115,-4.9116,-4.9117,0,-4.8282,-4.8335,-4.8404,-4.8443,-4.8476,-4.8538,-4.858,-4.8609,-4.8651,-4.8719,-4.876,-4.8829,-4.8885,-4.8994,-4.9034,-4.9098,-4.9101,-4.9149,-4.911,-4.9104,-4.9102,-4.9099,-4.9105,-4.9155,-4.9156,-4.9157,-4.9158,0,-4.8382,-4.8397,-4.8456,-4.8522,-4.8571,-4.8625,-4.8677,-4.8708,-4.8745,-4.8793,-4.8863,-4.8907,-4.8994,-4.9063,-4.9131,-4.9164,-4.9168,-4.917,-4.9185,-4.918,-4.9167,-4.9175,-4.9035,-4.9166,-4.9166,-4.9165,-4.9165,-4.9164,-4.8449,-4.8497,-4.8554,-4.862,-4.8663,-4.8712,-4.8762,-4.8797,-4.8857,-4.893,-4.8944,-4.9019,-4.9075,-4.9167,-4.9202,-4.9262,-4.9251,-4.9272,-4.9277,-4.9282,-4.9285,-4.9158,-4.9274,-4.9274,-4.9274,-4.9274,-4.9273,0,-4.855,-4.8588,-4.8649,-4.8722,-4.8775,-4.8775,-4.8834,-4.8877,-4.8944,-4.8996,-4.9052,-4.9134,-4.9201,-4.9247,-4.9315,-4.9354,-4.9357,-4.9371,-4.9368,-4.9376,-4.929,-4.9271,-4.9367,-4.9367,-4.9367,-4.9367,-4.9367,-4.9367,-4.8609,-4.8691,-4.8713,-4.8816,-4.8853,-4.8928,-4.8961,-4.9007,-4.9049,-4.914,-4.9196,-4.9226,-4.9276,-4.9349,-4.9411,-4.9422,-4.9447,-4.9461,-4.9472,-4.9392,-4.9382,-4.9372,-4.9355,-4.9466,-4.9466,-4.9553,-4.9554,-4.9555]}]]